星链-34378 (STARLINK-34378)

导读

STARLINK-34378是美国于2025年6月8日发射的星链系列卫星,属于SpaceX公司星链(Starlink)星座组网计划的一部分。星链项目旨在构建全球卫星互联网系统,为全球偏远地区、信号覆盖不足区域提供高速低延迟的宽带互联网接入服务,该卫星将助力星座扩容,提升全球网络覆盖能力与服务稳定性。

Basic Information
目录编号:
64299
目录名称:
STARLINK-34378
国际标识:
2025-123J
轨道中心:
EARTH
卫星名称:
星链-34378
卫星全名:
星链-34378 (STARLINK-34378)
卫星状态:
在轨 (已飞行453 天)
发射日期:
2025-06-08 UTC
国别 :
美国 (US)
星等 :
--
Orbit Information
数据来源 国际轨道数据
星历时间: 2026-09-04T14:00:02+0800
10小时前
查看轨道信息
半长轴: 6876.161km
偏心率: 0.0002822
轨道倾角: 69.997°
近地点辐角 282.795°
升交点赤经 103.933°
平近点角 59.789°
近地点: 496.083km
远地点: 499.965km
周期: 94.576分钟
每日圈数: 15.225928
Detailed Information
固有亮度:
5
最大亮度:
2.5
卫星平台:
Starlink V1.0
覆盖范围:
全球
运营商:
太空探索技术公司
运营商所在国:
美国
制造商(研发单位):
太空探索技术公司
制造商所在国:
美国
使用方式:
暂无
Satellite Introduction
Starlink 计划是 SpaceX 推出的全球卫星互联网项目,通过发射低轨道卫星,为全球尤其是偏远地区提供高速、低延迟的互联网服务。自 2019 年起,Starlink 已部署数千颗卫星,旨在缩小全球数字鸿沟,推动互联网普及。该项目还为军事、航空等行业提供通信支持,带来广泛经济效益。
2D Orbit Map
3D Orbit Map
Orbit Altitude Analysis Chart
Orbit Inclination Analysis Chart
Orbit Comprehensive Analysis Chart
View Comprehensive Chart
Conjunction Data List
Event ID Objects TCA Miss Dist (km) Collision Risk Probability Collision Risk Index (CRI) Action
CDM_260905-045906-429906-566821
2026-09-05T
04:59:46+0000
0.512 km
远距离
1.96597E-4 高风险 0.81
CDM_260904-201605-654806-429921
2026-09-04T
20:16:14+0000
0.956 km
远距离
2.83841E-5 中风险 0.64
CDM_260904-112405-171806-429921
2026-09-04T
11:24:25+0000
1.463 km
极远距离
6.329033E-6 低风险 0.51
CDM_260905-062106-429906-934021
2026-09-05T
06:21:32+0000
1.860 km
极远距离
3.52808E-6 低风险 0.46
CDM_260905-080605-248706-429921
2026-09-05T
08:06:05+0000
2.374 km
极远距离
1.780632E-6 低风险 0.4
CDM_260904-184205-654806-429921
2026-09-04T
18:42:02+0000
2.566 km
极远距离
1.530839E-6 低风险 0.39
CDM_260906-022904-763806-429921
2026-09-06T
02:29:43+0000
2.650 km
极远距离
1.338409E-6 低风险 0.38
CDM_260901-221104-973806-429921
2026-09-01T
22:11:31+0000
2.527 km
极远距离
8.642672E-7 极低风险 0.34
CDM_260904-224606-429906-649921
2026-09-04T
22:46:52+0000
2.922 km
极远距离
8.134248E-7 极低风险 0.33
CDM_260827-181304-793306-429921
GRUS-1C (47933)
2026-08-27T
18:13:20+0000
2.844 km
极远距离
6.575038E-7 极低风险 0.31